Theta_e
324 324 324 324 324 323 323 323 323 322 322 322 322 321 321 321 321 322 322 322 322 322 323 325 329 329 321 315 313 333 359 357 343 334 328 327 326 326 321 324 325 324 325 329 330 330 329
322 322 322 322 322 322 322 322 322 321 321 321 320 320 320 320 321 321 321 321 321 322 323 326 331 327 320 305 322 339 341 338 325 326 326 328 326 331 326 325 324 328 325 327 329 329 329
321 321 321 321 321 321 321 321 321 321 320 320 319 319 319 320 320 321 321 320 320 321 323 326 332 326 316 313 323 320 324 318 324 318 316 326 326 320 327 324 330 326 321 325 326 327 326
321 321 320 321 321 320 320 320 320 319 319 319 319 319 319 319 319 319 319 319 319 322 324 328 331 321 312 323 321 318 318 317 319 323 321 326 325 320 325 328 323 317 319 315 325 326 326
320 320 320 320 320 320 320 319 319 318 318 318 318 318 318 318 318 318 317 318 321 325 327 331 323 314 313 322 312 316 315 314 316 320 322 330 321 315 317 320 316 316 311 314 317 328 325
320 320 320 319 319 319 319 318 318 318 317 317 317 316 317 317 317 316 316 318 325 327 326 328 330 316 320 316 314 316 315 316 314 314 316 315 313 310 311 313 307 311 312 316 315 324 327
319 319 318 318 318 318 318 318 317 317 317 317 316 316 316 316 315 315 313 316 317 317 318 317 319 318 320 318 319 316 317 314 313 309 304 311 305 304 310 317 317 316 315 314 318 324 319
318 318 317 318 318 318 318 317 317 317 317 316 316 315 315 315 314 314 312 315 316 317 310 319 320 320 322 319 312 315 317 309 307 303 306 304 302 310 314 321 318 317 313 311 318 321 318
317 317 318 318 318 318 317 317 317 317 316 316 316 315 314 314 313 316 319 320 324 322 309 314 318 317 317 315 312 313 314 310 307 303 303 301 306 314 313 316 316 313 313 313 315 319 319
318 318 318 318 318 318 317 317 317 317 316 316 316 315 314 312 313 315 316 323 323 322 303 309 312 316 316 315 309 319 315 310 307 303 304 302 309 310 309 309 313 308 319 317 316 312 302
318 317 317 318 317 317 317 317 317 317 316 316 315 314 312 310 310 314 320 325 323 318 295 314 313 319 316 310 308 311 317 310 305 306 302 302 305 305 305 308 311 308 318 316 316 306 303
317 317 318 317 318 317 316 316 316 316 316 316 315 313 311 314 312 317 322 323 319 303 297 310 314 311 308 310 311 312 311 312 312 307 306 305 310 305 306 310 310 312 309 309 307 305 297
317 317 317 317 317 317 316 316 316 315 315 314 313 311 309 312 309 315 316 316 303 297 312 309 308 311 308 306 307 308 306 303 300 293 295 303 305 307 308 302 307 305 300 295 295 295 296
317 317 317 317 317 317 316 316 315 315 314 313 311 308 312 313 314 316 317 308 299 309 308 312 311 310 306 307 306 306 305 302 304 301 297 295 295 303 307 302 298 300 299 295 292 293 296
317 317 316 317 317 316 316 316 315 314 314 312 309 316 317 319 317 319 311 302 303 307 312 310 309 305 304 308 307 305 304 302 303 302 295 294 298 307 308 307 305 300 295 303 296 297 293
316 316 316 316 316 316 316 316 315 314 313 311 307 313 315 323 325 319 309 301 307 313 314 310 304 308 304 307 304 301 304 307 306 307 304 301 294 304 307 307 305 301 303 295 295 289 288
315 316 316 316 316 316 316 316 315 314 312 311 311 314 322 325 325 315 304 306 310 315 316 309 306 306 308 309 309 304 304 308 310 307 307 301 296 301 303 299 299 298 297 299 296 295 290
314 315 315 315 315 316 316 316 315 313 311 310 311 308 326 325 309 311 307 310 308 313 315 310 309 308 309 311 308 309 305 309 312 309 302 304 297 294 299 305 307 303 300 297 294 294 295
314 314 314 315 315 315 316 315 314 312 312 308 305 312 325 324 305 305 309 309 311 310 312 312 309 309 310 308 305 310 312 314 312 308 302 309 297 291 296 299 301 301 302 302 297 296 293
314 314 314 314 315 315 315 315 314 313 312 309 307 308 311 318 316 309 307 309 311 313 313 314 311 312 310 309 310 308 311 315 312 310 325 310 299 296 293 298 302 298 303 302 297 292 295
313 313 314 315 315 315 315 315 314 313 313 310 310 309 313 309 311 310 308 309 308 310 313 313 310 311 310 306 309 309 315 317 312 319 308 304 297 303 301 304 306 306 304 303 299 299 297
313 314 315 315 315 315 315 315 315 314 312 309 306 309 311 308 309 308 309 305 306 309 313 311 309 311 311 308 311 312 315 314 314 308 303 304 298 302 301 307 307 305 306 305 304 304 301
313 313 314 314 315 315 315 315 315 314 313 311 313 314 311 307 306 303 305 307 312 312 315 317 315 312 312 317 318 318 317 317 317 313 311 302 300 298 296 305 304 299 304 305 305 305 304
313 313 314 314 314 315 315 315 315 315 315 311 310 310 307 303 305 306 307 308 309 312 312 317 319 316 320 323 321 319 318 316 317 317 314 308 304 301 298 300 294 303 307 309 307 309 306
314 313 314 314 314 315 315 314 315 315 315 312 312 309 308 301 307 308 308 309 310 314 315 316 318 322 323 318 311 309 309 309 313 315 312 311 307 300 297 298 303 306 308 309 308 311 316
313 314 313 314 314 314 314 314 314 315 315 313 312 314 310 304 303 308 305 309 306 308 311 313 317 317 319 313 309 304 303 308 306 308 312 311 312 305 301 296 296 306 315 319 317 310 318
313 313 313 313 313 314 314 315 314 315 315 314 311 314 310 304 308 308 305 305 310 309 309 309 313 312 315 309 305 304 305 312 305 307 309 308 306 302 302 299 303 316 319 320 305 307 322
313 313 313 313 313 313 313 314 315 315 316 314 311 314 310 305 307 309 310 307 309 309 304 308 310 313 312 308 307 307 306 308 308 310 309 307 303 302 302 299 298 319 317 310 314 316 323
313 313 312 313 313 313 314 314 315 315 316 315 307 315 315 308 306 312 311 312 311 312 308 309 308 311 317 315 315 315 312 312 313 306 317 307 311 307 308 308 318 321 317 321 318 321 322
Wind_Speed
16 16 16 15 15 16 16 17 18 18 19 20 21 21 22 23 24 24 23 22 21 21 19 18 14 11 5 3 10 5 6 5 7 6 6 9 11 9 6 6 4 2 11 6 9 7 9
15 15 15 16 16 16 17 17 19 19 20 21 21 22 23 23 24 25 24 23 22 21 20 16 13 10 3 5 5 11 8 7 8 8 7 12 8 17 5 3 16 20 13 10 7 4 8
14 15 15 15 16 17 17 18 19 20 21 22 22 23 24 25 25 25 25 24 23 22 19 14 10 5 5 15 9 2 8 7 7 8 9 16 9 6 4 15 10 26 16 13 8 7 3
12 13 14 15 15 16 17 18 19 20 21 22 23 24 25 26 26 26 26 26 26 23 17 11 4 4 9 6 12 7 7 10 10 8 10 10 10 7 15 2 12 28 15 8 12 10 6
12 12 13 15 16 16 17 18 19 20 21 21 23 24 26 27 27 27 27 31 27 20 10 5 3 4 9 2 5 10 8 9 9 7 5 9 8 5 3 13 9 6 7 14 18 7 8
12 13 15 16 16 17 18 18 19 20 21 22 23 24 25 27 28 27 30 29 10 8 5 6 8 5 8 8 7 11 9 10 7 6 6 6 4 5 2 2 4 9 5 5 5 8 9
15 16 16 16 16 16 17 18 19 20 21 22 24 25 26 27 29 23 18 9 5 2 5 8 6 7 19 6 5 5 4 6 7 6 6 8 3 8 12 8 10 14 13 5 13 17 9
15 16 16 16 16 17 18 19 20 21 22 23 24 25 26 29 30 27 5 3 6 6 11 14 19 19 20 7 2 7 6 5 6 7 7 5 7 15 12 8 12 20 20 15 13 6 8
14 15 15 15 16 17 18 19 20 21 22 23 24 25 27 31 34 9 6 12 6 8 5 12 14 11 12 7 8 11 11 9 8 9 10 9 10 15 16 10 14 14 18 15 11 9 4
14 14 15 15 16 17 18 19 20 21 22 23 24 25 25 31 5 8 6 9 8 7 4 8 6 7 7 7 8 16 10 10 7 10 11 8 14 14 11 10 13 9 17 19 26 6 5
14 15 15 16 17 18 19 20 21 22 23 23 24 23 23 10 9 6 8 15 10 3 5 9 6 3 7 8 0 5 11 7 10 11 5 13 11 8 10 9 10 9 28 31 15 3 2
15 15 16 17 17 18 19 20 21 22 24 24 25 22 20 2 4 11 15 15 6 1 8 7 7 8 5 7 12 7 5 5 7 10 11 9 10 5 7 7 7 6 7 7 3 3 1
15 15 16 17 18 18 19 20 21 23 25 26 26 28 10 6 7 8 12 6 1 4 10 8 7 11 11 9 8 8 7 5 6 4 7 10 11 9 1 4 9 3 5 5 6 5 7
15 14 15 16 18 19 20 21 22 24 26 27 30 32 8 10 9 10 5 3 4 10 10 2 4 4 8 10 11 9 8 6 9 9 6 6 9 7 5 6 3 7 6 7 7 5 5
15 15 16 17 18 19 20 21 22 24 27 28 29 4 5 6 12 7 2 4 6 5 15 9 4 3 4 7 8 9 11 10 10 11 8 5 12 10 11 6 11 11 5 12 2 5 5
15 15 16 17 18 19 20 21 23 25 28 30 6 5 7 11 13 6 2 6 7 11 16 10 7 7 9 7 7 4 9 11 11 14 10 12 7 10 13 7 7 10 8 5 5 3 5
14 14 15 17 18 19 20 21 23 25 30 31 4 4 3 13 9 2 5 7 11 17 18 2 8 12 13 9 7 6 6 7 14 10 15 10 6 17 3 6 8 1 7 2 3 5 7
13 13 15 16 17 18 20 21 21 22 28 10 6 4 6 6 3 4 8 8 7 19 16 1 5 11 10 12 8 9 4 6 10 9 5 10 3 6 8 8 11 9 10 8 7 11 4
13 13 15 15 16 17 18 19 19 17 16 7 6 5 5 5 5 8 13 18 19 20 16 3 9 8 12 9 7 8 9 5 11 6 4 4 3 4 13 9 4 9 9 6 6 3 8
14 14 14 14 17 17 17 17 18 16 13 6 5 5 4 3 7 12 13 14 16 16 6 11 10 10 9 8 8 7 10 9 9 6 4 3 5 9 8 10 1 5 7 9 6 3 6
14 15 15 15 17 16 16 16 16 17 16 4 4 5 5 3 4 10 13 16 19 17 8 7 7 10 8 6 9 10 5 9 3 8 2 4 5 3 8 9 12 8 14 12 8 10 5
14 14 15 15 16 16 14 13 16 17 22 3 4 6 8 10 12 15 12 11 16 18 9 7 8 13 10 11 5 6 10 8 6 4 4 2 6 5 8 10 11 13 7 13 11 11 8
14 14 15 15 15 16 14 12 14 14 13 4 7 7 6 7 8 10 10 12 14 11 14 14 7 5 7 10 7 7 6 6 12 8 6 5 3 2 7 9 9 7 6 6 4 9 10
14 14 14 15 16 16 14 11 12 11 8 5 6 7 5 7 9 11 18 22 18 11 8 11 9 6 8 8 5 8 9 7 11 13 8 6 2 3 6 5 5 12 5 7 9 7 10
14 14 15 15 15 15 14 11 12 11 9 6 7 5 5 8 10 16 18 17 22 6 5 9 10 6 8 9 6 7 5 4 12 11 10 9 5 3 4 4 8 7 8 3 8 7 9
15 14 15 15 16 15 15 13 12 10 9 5 7 7 6 7 8 13 15 16 11 9 5 8 9 6 6 3 2 3 4 4 5 7 10 13 13 6 3 4 6 12 3 4 5 1 1
15 15 15 16 16 15 15 12 11 10 8 5 6 10 5 8 13 11 9 12 14 9 6 6 12 7 8 4 4 4 8 9 6 3 3 5 7 6 5 5 2 6 8 2 7 8 4
15 15 15 15 16 14 14 12 11 10 8 4 7 10 6 7 14 17 17 15 13 7 6 12 9 5 4 2 3 5 5 7 4 4 5 3 2 4 2 3 7 7 4 6 8 4 5
15 16 16 15 14 14 14 12 11 10 8 4 5 5 8 5 12 18 20 21 19 12 8 5 6 8 5 5 6 5 5 3 1 3 5 3 6 4 4 1 9 17 1 5 3 7 6
Wind_Direction
12 9 6 3 1 358 355 352 350 348 345 343 340 337 334 332 329 327 325 323 321 319 320 320 320 326 313 245 253 153 167 184 155 188 227 246 261 169 184 297 90 25 113 88 115 104 136
11 8 5 1 359 357 353 350 348 346 343 341 339 336 332 330 327 325 323 320 317 314 315 315 319 324 257 255 205 153 181 161 241 189 256 259 262 139 172 214 42 359 125 151 151 162 78
12 8 4 1 358 355 350 347 346 344 342 339 338 335 331 329 326 324 320 317 312 307 304 305 311 294 264 241 313 187 204 229 221 207 260 273 313 36 217 68 56 34 30 315 138 86 20
6 3 1 359 355 353 350 347 344 342 339 337 335 332 330 328 326 323 320 314 304 296 293 281 281 269 253 239 238 250 262 281 265 221 232 288 306 333 87 351 57 64 352 343 338 108 316
0 360 356 356 354 351 348 344 341 339 337 334 332 330 328 326 325 323 320 311 299 286 247 253 243 224 270 260 223 233 225 252 253 258 273 283 296 289 25 130 87 130 199 235 280 215 157
1 2 358 353 351 348 344 341 339 337 334 332 331 329 327 324 323 325 321 300 285 313 186 229 259 290 270 248 240 217 218 238 255 229 230 233 279 265 28 123 154 166 171 264 304 236 126
1 355 355 354 351 348 344 341 338 336 335 333 330 328 325 323 320 327 339 339 336 20 225 246 217 253 290 220 100 331 278 217 274 285 204 232 202 247 245 209 162 78 95 349 250 244 117
2 358 356 353 349 345 342 339 336 335 333 331 329 327 325 324 318 318 279 263 50 268 297 264 264 264 266 284 311 224 222 230 232 251 231 260 213 245 259 152 183 118 120 186 257 210 106
357 354 351 348 345 342 339 337 334 332 331 330 328 328 328 324 318 299 245 281 298 332 277 288 234 229 237 222 231 254 169 230 217 233 252 197 228 236 243 179 201 152 165 214 216 191 138
352 349 347 345 343 339 337 335 333 332 330 328 327 327 330 331 326 342 284 9 341 324 297 265 185 212 209 176 245 229 204 179 232 230 232 236 239 246 245 243 191 201 163 264 236 151 194
349 348 346 343 341 339 336 334 332 330 328 326 323 326 328 323 306 295 329 329 314 321 315 161 159 111 170 178 228 201 224 194 235 245 218 248 248 255 250 225 242 255 163 204 217 358 77
344 344 342 341 339 336 333 331 330 328 326 324 320 321 334 330 216 254 296 287 304 277 241 178 136 178 195 207 261 203 176 160 215 262 278 255 270 287 232 277 281 300 340 336 318 159 271
343 338 341 337 336 334 332 331 330 327 325 322 318 312 301 291 241 342 326 305 293 231 315 161 180 163 178 204 240 151 178 207 218 216 272 283 264 282 274 24 334 343 345 338 339 354 225
337 343 340 338 336 335 333 331 330 328 325 324 319 309 238 207 228 258 289 315 254 271 273 239 105 192 168 193 215 213 181 207 215 245 211 221 292 244 259 176 213 268 198 164 235 241 258
341 340 339 338 336 335 333 332 331 329 326 325 316 288 234 228 212 245 268 244 230 242 333 351 358 202 254 234 183 190 185 189 203 218 210 218 250 233 206 172 161 264 281 234 246 304 29
334 335 337 335 336 337 335 335 335 334 331 327 313 284 253 229 165 200 218 254 290 319 302 355 343 315 325 253 174 214 194 203 210 198 192 257 303 272 229 188 203 170 236 358 344 251 284
332 334 333 333 334 336 337 337 337 338 336 321 260 278 163 163 168 223 234 241 282 280 289 351 303 314 316 320 233 220 234 223 201 204 196 221 184 280 98 153 173 189 274 272 167 153 188
327 331 332 333 334 334 336 338 338 343 341 355 314 273 152 142 173 209 234 259 269 284 290 31 289 291 299 310 324 291 230 258 181 170 207 208 177 262 224 217 179 191 208 193 127 279 245
319 324 325 327 329 331 333 336 338 345 7 323 307 280 241 175 240 237 257 250 248 271 278 291 273 255 279 291 333 328 341 340 68 71 69 328 259 305 327 331 201 180 228 221 217 224 256
317 318 324 325 323 322 328 334 336 339 346 334 286 290 232 178 233 272 296 291 285 246 246 285 303 302 292 316 306 296 305 292 131 126 142 63 238 172 209 223 119 219 202 229 198 192 249
311 313 317 318 318 318 320 329 335 337 333 309 244 267 19 304 294 293 247 270 292 301 215 201 295 293 308 314 299 303 337 358 256 133 160 131 267 257 262 274 281 254 189 214 229 240 163
303 305 310 313 316 318 320 326 334 338 331 223 300 344 341 299 297 297 292 233 268 286 302 194 206 251 242 253 276 333 358 18 327 338 186 260 270 292 301 297 291 293 234 211 200 229 257
294 298 305 310 312 315 320 332 332 341 341 311 349 338 307 295 306 317 292 295 289 278 297 300 231 245 295 30 8 326 314 304 295 302 314 209 201 282 269 278 297 317 255 289 234 203 199
288 291 299 305 309 310 311 319 324 332 350 313 305 304 284 291 314 296 307 311 293 272 285 313 359 5 3 3 353 331 319 309 273 275 279 276 230 202 246 318 298 245 249 228 255 240 216
280 284 289 298 302 305 308 301 312 314 322 304 304 294 309 302 312 298 325 322 318 324 329 324 321 343 351 343 1 350 304 296 266 260 251 259 265 235 169 226 252 247 282 29 49 352 74
279 279 284 291 295 297 302 296 296 298 309 305 290 272 284 287 243 346 318 309 307 340 326 295 286 294 311 305 352 249 280 307 253 276 238 244 249 169 275 210 240 231 120 54 14 67 268
279 278 282 286 293 287 296 291 288 289 298 304 285 298 285 289 276 286 314 319 317 330 309 327 326 303 213 232 253 260 267 278 251 253 322 324 278 213 246 238 235 259 278 143 80 246 284
276 275 277 282 287 284 290 289 283 283 289 297 289 286 276 284 291 284 301 305 321 338 351 329 320 335 358 259 192 244 262 270 279 350 170 203 21 279 312 273 290 205 337 120 184 226 344
276 277 277 275 277 278 280 280 281 271 272 287 277 287 335 262 284 311 289 278 275 287 312 322 287 301 349 3 11 335 322 325 145 269 327 357 154 181 97 227 319 323 168 297 294 113 263